period_start,C,m1,H,J0,J1,J2,J3,J4,J5,JA,JB,JC,JD,JJ,JK,JN,#
2016-04-17 00:02:01,0.09,3.85,0.00,15.98,20.59,24.02,15.04,51.86,1020.54,2059.12,2214.33,2275.99,2574.65,599.75,612.74,33.59,0000 0000 0000 0000 000000
2016-04-17 00:07:02,0.08,3.85,0.00,15.98,20.60,24.04,15.02,51.81,1020.52,2059.04,2213.14,2275.11,2573.73,599.85,612.69,33.64,0000 0000 0000 0000 000000
2016-04-17 00:12:04,0.09,3.86,0.00,16.00,20.62,24.05,15.05,51.83,1020.52,2059.05,2212.03,2274.26,2572.81,599.82,612.64,33.69,0000 0000 0000 0000 000000
2016-04-17 00:17:05,0.09,3.86,0.00,16.06,20.64,24.07,15.03,51.92,1020.52,2059.01,2210.93,2273.45,2571.80,600.16,612.95,33.74,0000 0000 0000 0000 000000
2016-04-17 00:22:07,0.07,3.87,0.00,16.07,20.66,24.08,15.07,51.98,1020.52,2059.00,2209.89,2272.69,2570.88,599.70,612.29,33.79,0000 0000 0000 0000 000000
2016-04-17 00:27:08,0.07,3.87,0.00,16.09,20.68,24.10,15.05,51.86,1020.52,2059.00,2208.88,2271.96,2569.98,600.00,612.62,33.84,0000 0000 0000 0000 000000
2016-04-17 00:32:09,0.10,3.88,0.00,16.11,20.69,24.10,15.03,51.87,1020.51,2059.00,2207.80,2271.09,2569.03,600.05,612.69,33.89,0000 0000 0000 0000 000000
2016-04-17 00:37:11,0.09,3.88,0.00,16.16,20.72,24.14,15.01,51.83,1020.50,2058.99,2206.71,2270.16,2568.08,599.94,612.39,33.94,0000 0000 0000 0000 000000
2016-04-17 00:42:12,0.09,3.88,0.00,16.17,20.73,24.14,15.03,51.93,1020.27,2058.98,2205.55,2269.26,2567.09,599.90,612.12,33.99,0000 0000 0000 0000 000000
2016-04-17 00:47:13,0.09,3.89,0.00,16.17,20.74,24.16,15.10,51.88,1020.12,2058.97,2204.55,2268.53,2566.21,600.29,612.47,34.05,0000 0000 0000 0000 000000
2016-04-17 00:52:15,0.09,3.89,0.00,16.21,20.77,24.19,15.07,51.84,1020.11,2058.98,2203.34,2267.68,2565.20,600.02,612.19,34.10,0000 0000 0000 0000 000000
2016-04-17 00:57:16,0.07,3.90,0.00,16.25,20.78,24.21,15.01,51.78,1020.04,2058.96,2202.32,2266.91,2564.35,599.93,611.93,34.15,0000 0000 0000 0000 000000
2016-04-17 01:02:17,0.07,3.90,0.00,16.26,20.79,24.21,15.03,51.84,1020.04,2058.91,2201.27,2266.08,2563.60,599.77,611.64,34.20,0000 0000 0000 0000 000000
2016-04-17 01:07:18,0.08,3.91,0.00,16.28,20.82,24.26,15.02,51.73,1020.04,2058.88,2200.26,2265.43,2562.82,600.27,612.18,34.25,0000 0000 0000 0000 000000
2016-04-17 01:12:20,0.05,3.91,0.00,16.30,20.83,24.25,15.04,51.86,1020.03,2058.86,2199.40,2264.87,2562.04,599.96,611.84,34.30,0000 0000 0000 0000 000000
2016-04-17 01:17:21,0.06,3.91,0.00,16.34,20.84,24.26,14.99,51.87,1019.88,2058.69,2198.48,2264.09,2561.26,599.74,611.47,34.35,0000 0000 0000 0000 000000
2016-04-17 01:22:22,0.00,3.91,0.00,16.33,20.87,24.30,15.07,51.88,1019.60,2058.23,2197.78,2263.67,2560.71,600.37,611.90,34.40,0000 0000 0000 0000 000000
2016-04-17 01:27:23,0.04,3.92,0.00,16.37,20.89,24.33,15.08,51.93,1019.56,2058.14,2197.01,2263.02,2560.01,600.12,611.57,34.45,0000 0000 0000 0000 000000
2016-04-17 01:32:25,0.07,3.92,0.00,16.42,20.91,24.34,14.96,51.73,1019.55,2058.06,2196.26,2262.49,2559.26,600.01,611.29,34.50,0000 0000 0000 0000 000000
2016-04-17 01:37:26,0.03,3.92,0.00,16.46,20.93,24.37,15.00,51.85,1019.55,2058.04,2195.61,2261.98,2558.92,599.93,611.11,34.55,0000 0000 0000 0000 000000
2016-04-17 01:42:27,0.08,3.93,0.00,16.48,20.96,24.37,14.99,51.83,1019.53,2058.00,2194.77,2261.15,2558.09,600.01,611.26,34.60,0000 0000 0000 0000 000000
2016-04-17 01:47:28,0.10,3.93,0.00,16.50,20.99,24.40,14.96,51.83,1019.43,2058.00,2193.65,2260.43,2557.23,599.84,610.91,34.65,0000 0000 0000 0000 000000
2016-04-17 01:52:29,0.04,3.93,0.00,16.55,21.01,24.40,15.00,51.89,1019.20,2058.00,2192.91,2259.89,2556.48,599.78,610.58,34.70,0000 0000 0000 0000 000000
2016-04-17 01:57:31,0.08,3.94,0.00,16.58,21.04,24.43,14.96,51.83,1019.24,2058.00,2192.07,2259.07,2555.78,600.14,611.00,34.75,0000 0000 0000 0000 000000
2016-04-17 02:02:32,0.07,3.94,0.00,16.60,21.07,24.46,14.96,51.91,1019.13,2057.98,2191.24,2258.46,2554.99,600.20,610.86,34.80,0000 0000 0000 0000 000000
2016-04-17 02:07:33,0.06,3.94,0.00,16.64,21.09,24.48,14.98,51.87,1019.10,2057.96,2190.30,2257.88,2554.15,599.81,610.38,34.85,0000 0000 0000 0000 000000
2016-04-17 02:12:35,0.07,3.95,0.00,16.69,21.12,24.50,14.90,51.76,1019.09,2057.90,2189.45,2257.08,2553.38,599.48,610.00,34.90,0000 0000 0000 0000 000000
2016-04-17 02:17:36,0.03,3.95,0.00,16.72,21.14,24.53,15.04,51.79,1019.09,2057.57,2188.46,2256.36,2552.66,600.55,610.99,34.96,0000 0000 0000 0000 000000
2016-04-17 02:22:37,0.02,3.95,0.00,16.74,21.18,24.56,15.03,51.77,1019.07,2057.20,2187.65,2255.85,2551.89,600.15,610.53,35.01,0000 0000 0000 0000 000000
2016-04-17 02:27:38,0.07,3.95,0.00,16.77,21.20,24.57,15.00,51.88,1019.06,2057.05,2186.64,2255.04,2551.01,600.46,610.77,35.06,0000 0000 0000 0000 000000
2016-04-17 02:32:40,0.08,3.96,0.00,16.82,21.23,24.58,14.99,51.65,1019.06,2057.01,2185.82,2254.25,2550.10,600.28,610.48,35.11,0000 0000 0000 0000 000000
2016-04-17 02:37:41,0.09,3.96,0.00,16.86,21.26,24.62,14.99,51.73,1019.06,2057.00,2184.77,2253.55,2549.20,600.10,610.22,35.16,0000 0000 0000 0000 000000
2016-04-17 02:42:42,0.09,3.97,0.00,16.88,21.29,24.65,15.00,51.73,1019.06,2057.00,2183.53,2252.69,2548.18,599.93,610.10,35.21,0000 0000 0000 0000 000000
2016-04-17 02:47:44,0.12,3.97,0.00,16.90,21.32,24.69,14.97,51.61,1019.06,2056.99,2182.01,2251.59,2546.98,599.98,610.00,35.26,0000 0000 0000 0000 000000
2016-04-17 02:52:45,0.12,3.98,0.00,16.95,21.34,24.68,14.90,51.74,1019.06,2056.98,2180.66,2250.46,2545.74,599.85,609.69,35.31,0000 0000 0000 0000 000000
2016-04-17 02:57:46,0.11,3.99,0.00,16.99,21.37,24.70,14.97,51.66,1019.06,2056.96,2179.15,2249.38,2544.47,600.35,610.23,35.36,0000 0000 0000 0000 000000
2016-04-17 03:02:47,0.11,3.99,0.00,17.03,21.40,24.76,14.99,51.78,1019.06,2056.88,2177.67,2248.33,2543.36,600.01,609.84,35.41,0000 0000 0000 0000 000000
2016-04-17 03:07:49,0.04,4.00,0.00,17.04,21.42,24.78,14.94,51.65,1019.05,2056.46,2176.27,2247.29,2542.09,600.12,609.83,35.46,0000 0000 0000 0000 000000
2016-04-17 03:12:50,0.08,4.00,0.00,17.09,21.45,24.80,14.90,51.67,1019.06,2056.12,2174.88,2246.20,2540.94,600.03,609.68,35.51,0000 0000 0000 0000 000000
2016-04-17 03:17:51,0.11,4.00,0.00,17.14,21.47,24.84,14.99,51.83,1019.05,2056.04,2173.63,2245.28,2539.82,600.31,609.92,35.56,0000 0000 0000 0000 000000
2016-04-17 03:22:52,0.10,4.01,0.00,17.16,21.50,24.89,14.96,51.73,1018.97,2056.02,2172.45,2244.39,2538.78,599.90,609.42,35.61,0000 0000 0000 0000 000000
2016-04-17 03:27:53,0.09,4.01,0.00,17.19,21.53,24.89,14.86,51.80,1018.80,2056.01,2171.29,2243.51,2537.80,599.65,608.99,35.66,0000 0000 0000 0000 000000
2016-04-17 03:32:54,0.09,4.02,0.00,17.23,21.55,24.94,14.90,51.86,1018.71,2056.00,2169.99,2242.60,2536.82,599.80,608.93,35.71,0000 0000 0000 0000 000000
2016-04-17 03:37:55,0.06,4.02,0.00,17.28,21.58,24.96,14.92,51.74,1018.61,2056.00,2168.96,2241.88,2535.94,600.10,609.01,35.76,0000 0000 0000 0000 000000
2016-04-17 03:42:57,0.08,4.03,0.00,17.32,21.61,24.98,14.95,51.86,1018.59,2055.98,2168.09,2241.07,2535.11,600.00,608.85,35.81,0000 0000 0000 0000 000000
2016-04-17 03:47:58,0.06,4.03,0.00,17.35,21.64,25.01,14.91,51.77,1018.57,2055.97,2167.34,2240.72,2534.40,599.74,608.59,35.86,0000 0000 0000 0000 000000
2016-04-17 03:52:59,0.04,4.03,0.00,17.38,21.67,25.03,14.95,51.84,1018.57,2055.93,2166.69,2240.03,2533.93,600.22,608.96,35.92,0000 0000 0000 0000 000000
2016-04-17 03:58:01,0.01,4.04,0.00,17.42,21.69,25.08,14.90,51.82,1018.57,2055.47,2165.88,2239.63,2533.10,599.96,608.56,35.97,0000 0000 0000 0000 000000
2016-04-17 04:03:02,0.04,4.04,0.00,17.48,21.70,25.12,14.97,51.86,1018.57,2055.12,2164.87,2239.01,2532.33,600.11,608.84,36.02,0000 0000 0000 0000 000000
2016-04-17 04:08:03,0.07,4.04,0.00,17.52,21.72,25.17,14.90,51.73,1018.55,2055.06,2164.00,2238.31,2531.67,599.97,608.39,36.07,0000 0000 0000 0000 000000
2016-04-17 04:13:05,0.04,4.04,0.00,17.55,21.74,25.21,14.86,51.55,1018.38,2055.02,2163.14,2237.97,2531.01,599.98,608.30,36.12,0000 0000 0000 0000 000000
2016-04-17 04:18:06,0.08,4.05,0.00,17.58,21.75,25.25,14.90,51.60,1018.14,2055.01,2162.37,2237.31,2530.40,599.93,608.00,36.17,0000 0000 0000 0000 000000
2016-04-17 04:23:07,0.05,4.05,0.00,17.61,21.77,25.28,14.97,51.74,1018.09,2055.01,2161.52,2236.82,2529.72,600.35,608.25,36.22,0000 0000 0000 0000 000000
2016-04-17 04:28:09,0.06,4.05,0.00,17.63,21.77,25.32,14.90,51.55,1018.08,2055.00,2160.67,2236.06,2529.02,600.15,608.02,36.27,0000 0000 0000 0000 000000
2016-04-17 04:33:10,0.05,4.06,0.00,17.67,21.78,25.34,14.90,51.61,1018.07,2055.00,2159.92,2235.80,2528.42,600.00,607.85,36.32,0000 0000 0000 0000 000000
2016-04-17 04:38:12,0.06,4.06,0.00,17.69,21.79,25.39,14.86,51.52,1017.95,2055.00,2159.08,2235.07,2527.99,599.98,607.71,36.37,0000 0000 0000 0000 000000
2016-04-17 04:43:13,0.05,4.06,0.00,17.72,21.79,25.40,14.87,51.43,1018.04,2055.00,2158.40,2234.92,2527.31,599.90,607.68,36.42,0000 0000 0000 0000 000000
2016-04-17 04:48:14,0.07,4.06,0.00,17.74,21.82,25.42,14.92,51.33,1018.06,2055.00,2157.78,2234.14,2526.76,599.96,607.67,36.47,0000 0000 0000 0000 000000
2016-04-17 04:53:16,0.05,4.07,0.00,17.75,21.82,25.47,14.96,51.48,1018.08,2055.00,2157.00,2233.81,2526.03,600.46,608.15,36.52,0000 0000 0000 0000 000000
2016-04-17 04:58:17,0.07,4.07,0.00,17.76,21.84,25.49,14.86,51.47,1018.08,2054.99,2156.16,2233.06,2525.41,599.67,607.33,36.57,0000 0000 0000 0000 000000
2016-04-17 05:03:19,0.03,4.07,0.00,17.79,21.85,25.50,14.99,51.49,1018.08,2054.98,2155.57,2232.88,2524.97,600.41,608.05,36.62,0000 0000 0000 0000 000000
2016-04-17 05:08:20,0.07,4.08,0.00,17.81,21.87,25.52,14.86,51.50,1018.08,2054.99,2154.85,2232.08,2524.17,599.65,607.16,36.67,0000 0000 0000 0000 000000
2016-04-17 05:13:21,0.04,4.08,0.00,17.82,21.88,25.52,14.90,51.37,1018.08,2054.96,2154.03,2231.81,2523.72,600.16,607.75,36.72,0000 0000 0000 0000 000000
2016-04-17 05:18:22,0.07,4.08,0.00,17.83,21.89,25.56,14.90,51.48,1018.08,2054.95,2153.23,2231.07,2523.02,600.08,607.66,36.77,0000 0000 0000 0000 000000
2016-04-17 05:23:23,0.06,4.09,0.00,17.84,21.92,25.58,14.90,51.38,1018.08,2054.94,2152.49,2230.73,2522.31,600.04,607.51,36.83,0000 0000 0000 0000 000000
2016-04-17 05:28:25,0.04,4.09,0.00,17.85,21.93,25.60,14.90,51.39,1018.08,2054.91,2151.85,2230.04,2521.87,599.97,607.48,36.88,0000 0000 0000 0000 000000
2016-04-17 05:33:27,0.05,4.09,0.00,17.87,21.95,25.61,14.79,51.37,1018.08,2054.83,2151.04,2229.76,2521.08,599.55,607.09,36.93,0000 0000 0000 0000 000000
2016-04-17 05:38:28,0.02,4.09,0.00,17.89,21.97,25.64,14.87,51.33,1018.06,2054.57,2150.28,2229.08,2520.68,600.01,607.34,36.98,0000 0000 0000 0000 000000
2016-04-17 05:43:29,0.01,4.09,0.00,17.88,21.99,25.67,14.98,51.47,1017.92,2054.42,2149.93,2228.93,2520.03,600.26,607.56,37.03,0000 0000 0000 0000 000000
2016-04-17 05:48:31,0.06,4.10,0.00,17.89,22.02,25.68,14.90,51.46,1017.76,2054.18,2149.16,2228.19,2519.75,600.28,607.43,37.08,0000 0000 0000 0000 000000
2016-04-17 05:53:32,0.04,4.10,0.00,17.88,22.03,25.71,14.97,51.53,1017.68,2054.11,2148.54,2227.94,2519.02,600.14,607.40,37.13,0000 0000 0000 0000 000000
2016-04-17 05:58:33,0.06,4.10,0.00,17.89,22.05,25.75,14.92,51.68,1017.70,2054.06,2147.86,2227.15,2518.32,599.98,607.15,37.18,0000 0000 0000 0000 000000
2016-04-17 06:03:34,0.03,4.10,0.00,17.92,22.07,25.75,14.87,51.51,1017.68,2054.01,2147.04,2226.88,2517.80,600.06,607.13,37.23,0000 0000 0000 0000 000000
2016-04-17 06:08:36,0.08,4.11,0.00,17.92,22.09,25.76,14.94,51.38,1017.69,2054.01,2146.37,2226.10,2517.05,600.20,607.18,37.28,0000 0000 0000 0000 000000
2016-04-17 06:13:37,0.09,4.11,0.00,17.94,22.12,25.76,14.89,51.35,1017.72,2054.00,2145.51,2225.46,2516.28,600.18,607.28,37.33,0000 0000 0000 0000 000000
2016-04-17 06:18:39,0.07,4.12,0.00,17.94,22.14,25.77,14.88,51.50,1017.81,2054.00,2144.74,2224.76,2515.34,600.04,607.14,37.38,0000 0000 0000 0000 000000
2016-04-17 06:23:41,0.06,4.12,0.00,17.94,22.16,25.81,14.90,51.58,1018.00,2053.99,2143.93,2224.01,2514.46,600.10,607.28,37.43,0000 0000 0000 0000 000000
2016-04-17 06:28:41,0.08,4.12,0.00,17.96,22.19,25.77,14.95,51.60,1017.95,2053.98,2143.11,2223.33,2513.82,599.86,606.83,37.48,0000 0000 0000 0000 000000
2016-04-17 06:33:43,0.05,4.13,0.00,17.99,22.21,25.80,14.87,51.47,1017.75,2053.98,2142.53,2222.89,2513.03,599.74,606.71,37.53,0000 0000 0000 0000 000000
2016-04-17 06:38:44,0.07,4.13,0.00,18.01,22.23,25.82,14.90,51.58,1017.66,2053.93,2141.83,2222.12,2512.31,600.14,607.01,37.58,0000 0000 0000 0000 000000
2016-04-17 06:43:46,0.07,4.13,0.00,18.03,22.25,25.83,14.88,51.51,1017.62,2053.89,2140.92,2221.56,2511.65,600.36,607.32,37.63,0000 0000 0000 0000 000000
2016-04-17 06:48:47,0.02,4.14,0.00,18.02,22.27,25.85,14.84,51.37,1017.63,2053.63,2140.05,2220.94,2510.77,599.74,606.68,37.69,0000 0000 0000 0000 000000
2016-04-17 06:53:48,0.03,4.14,0.00,18.04,22.29,25.86,14.88,51.18,1017.61,2053.24,2139.45,2220.15,2510.03,600.33,607.09,37.74,0000 0000 0000 0000 000000
2016-04-17 06:58:49,0.02,4.14,0.00,18.06,22.31,25.86,14.88,51.37,1017.61,2053.06,2138.91,2219.98,2509.51,600.11,606.85,37.79,0000 0000 0000 0000 000000
2016-04-17 07:03:51,0.06,4.14,0.00,18.09,22.33,25.84,14.84,51.02,1017.60,2053.03,2138.27,2219.44,2509.01,599.82,606.41,37.84,0000 0000 0000 0000 000000
2016-04-17 07:08:52,0.03,4.14,0.00,18.11,22.35,25.91,14.87,51.27,1017.60,2053.02,2137.75,2219.00,2508.46,599.81,606.46,37.89,0000 0000 0000 0000 000000
2016-04-17 07:13:53,0.06,4.15,0.00,18.11,22.37,25.93,14.87,51.36,1017.60,2053.00,2137.03,2218.45,2507.98,599.93,606.58,37.94,0000 0000 0000 0000 000000
2016-04-17 07:18:55,0.05,4.15,0.00,18.13,22.39,25.93,14.90,51.25,1017.60,2053.00,2136.55,2218.00,2507.21,600.30,606.88,37.99,0000 0000 0000 0000 000000
2016-04-17 07:23:56,0.04,4.15,0.00,18.14,22.41,25.95,14.94,51.47,1017.60,2053.00,2135.98,2217.63,2506.88,600.34,606.94,38.04,0000 0000 0000 0000 000000
2016-04-17 07:28:57,0.06,4.15,0.00,18.15,22.42,25.98,14.87,51.30,1017.61,2053.00,2135.17,2217.02,2506.06,599.98,606.48,38.09,0000 0000 0000 0000 000000
2016-04-17 07:33:58,0.05,4.16,0.00,18.19,22.44,25.94,14.89,51.45,1017.62,2052.99,2134.95,2216.55,2505.64,600.15,606.60,38.14,0000 0000 0000 0000 000000
2016-04-17 07:39:00,0.04,4.16,0.00,18.20,22.45,25.99,14.88,51.32,1017.60,2052.98,2134.14,2216.02,2505.01,600.07,606.59,38.19,0000 0000 0000 0000 000000
2016-04-17 07:44:01,0.02,4.16,0.00,18.22,22.47,25.99,14.88,51.38,1017.60,2052.94,2133.93,2215.90,2504.62,600.13,606.54,38.24,0000 0000 0000 0000 000000
2016-04-17 07:49:02,0.07,4.16,0.00,18.23,22.48,26.04,14.92,51.30,1017.59,2052.91,2133.17,2215.13,2504.02,600.23,606.63,38.29,0000 0000 0000 0000 000000
2016-04-17 07:54:03,-0.01,4.16,0.00,18.24,22.49,26.05,14.88,51.27,1017.59,2052.66,2132.88,2215.01,2503.75,600.01,606.31,38.34,0000 0000 0000 0000 000000
2016-04-17 07:59:05,0.01,4.16,0.00,18.24,22.50,26.06,14.86,51.18,1017.59,2052.28,2132.08,2214.80,2503.04,600.20,606.53,38.39,0000 0000 0000 0000 000000
2016-04-17 08:04:06,0.06,4.17,0.00,18.24,22.51,26.04,14.84,51.08,1017.59,2052.12,2131.53,2214.08,2502.48,599.91,606.32,38.44,0000 0000 0000 0000 000000
2016-04-17 08:09:07,0.01,4.17,0.00,18.25,22.52,26.05,14.83,51.03,1017.59,2052.03,2130.99,2213.90,2501.99,599.78,606.06,38.49,0000 0000 0000 0000 000000
2016-04-17 08:14:08,0.06,4.17,0.00,18.27,22.52,26.04,14.83,50.98,1017.59,2052.05,2130.62,2213.34,2501.66,600.07,606.40,38.54,0000 0000 0000 0000 000000
2016-04-17 08:19:10,0.02,4.17,0.00,18.26,22.53,26.01,14.90,50.88,1017.59,2052.02,2130.02,2213.01,2501.03,600.04,606.35,38.59,0000 0000 0000 0000 000000
2016-04-17 08:24:11,0.02,4.17,0.00,18.27,22.54,26.04,14.87,51.13,1017.59,2052.01,2129.58,2212.97,2500.94,600.06,606.40,38.65,0000 0000 0000 0000 000000
2016-04-17 08:29:12,0.07,4.18,0.00,18.26,22.54,26.08,14.87,50.98,1017.59,2052.00,2129.01,2212.26,2500.17,600.00,606.38,38.70,0000 0000 0000 0000 000000
2016-04-17 08:34:14,0.02,4.18,0.00,18.27,22.54,26.10,14.82,50.96,1017.59,2052.00,2128.58,2212.00,2500.00,599.68,605.96,38.75,0000 0000 0000 0000 000000
2016-04-17 08:39:15,0.02,4.18,0.00,18.30,22.55,26.06,14.86,51.00,1017.60,2052.00,2128.01,2211.97,2499.58,599.70,606.07,38.80,0000 0000 0000 0000 000000
2016-04-17 08:44:16,0.06,4.18,0.00,18.30,22.57,26.04,14.85,51.07,1017.60,2052.00,2127.64,2211.32,2499.02,599.81,606.07,38.85,0000 0000 0000 0000 000000
2016-04-17 08:49:17,0.01,4.19,0.00,18.29,22.57,26.09,14.86,51.11,1017.60,2052.00,2127.03,2211.01,2498.95,600.01,606.29,38.90,0000 0000 0000 0000 000000
2016-04-17 08:54:18,0.08,4.19,0.00,18.29,22.57,26.12,14.83,51.04,1017.60,2052.00,2126.31,2210.66,2498.17,600.02,606.22,38.95,0000 0000 0000 0000 000000
2016-04-17 08:59:20,0.03,4.19,0.00,18.28,22.57,26.07,14.83,50.83,1017.60,2052.00,2125.77,2210.05,2497.90,599.60,605.87,39.00,0000 0000 0000 0000 000000
2016-04-17 09:04:21,0.04,4.19,0.00,18.26,22.59,26.08,14.92,50.99,1017.59,2052.00,2125.03,2209.99,2497.15,600.35,606.80,39.05,0000 0000 0000 0000 000000
2016-04-17 09:09:22,0.03,4.19,0.00,18.25,22.59,26.07,14.84,51.03,1017.60,2052.00,2124.78,2209.73,2496.99,599.83,606.12,39.10,0000 0000 0000 0000 000000
2016-04-17 09:14:24,0.06,4.20,0.00,18.23,22.59,26.06,14.84,51.06,1017.59,2051.98,2124.05,2209.06,2496.46,599.76,606.16,39.15,0000 0000 0000 0000 000000
2016-04-17 09:19:25,0.02,4.20,0.00,18.21,22.59,26.07,14.92,51.09,1017.59,2051.99,2123.55,2209.00,2496.01,600.06,606.43,39.20,0000 0000 0000 0000 000000
2016-04-17 09:24:27,0.03,4.20,0.00,18.19,22.59,26.08,14.89,51.13,1017.59,2051.97,2123.01,2208.67,2495.90,599.86,606.35,39.25,0000 0000 0000 0000 000000
2016-04-17 09:29:28,0.06,4.20,0.00,18.18,22.59,26.07,14.91,51.08,1017.59,2051.98,2122.48,2208.05,2495.11,599.81,606.25,39.30,0000 0000 0000 0000 000000
2016-04-17 09:34:29,0.00,4.20,0.00,18.17,22.59,26.09,14.89,51.16,1017.59,2051.97,2121.99,2207.99,2495.00,600.04,606.49,39.35,0000 0000 0000 0000 000000
2016-04-17 09:39:30,0.05,4.21,0.00,18.18,22.59,26.06,14.97,51.21,1017.59,2051.96,2121.47,2207.78,2494.71,600.34,606.72,39.40,0000 0000 0000 0000 000000
2016-04-17 09:44:32,0.04,4.21,0.00,18.18,22.59,26.07,14.94,51.27,1017.59,2051.98,2120.98,2207.08,2494.04,600.16,606.71,39.45,0000 0000 0000 0000 000000
2016-04-17 09:49:33,0.04,4.21,0.00,18.15,22.58,26.05,14.89,51.42,1017.59,2051.98,2120.19,2206.90,2493.70,600.40,607.00,39.50,0000 0000 0000 0000 000000
2016-04-17 09:54:34,0.08,4.22,0.00,18.12,22.57,26.08,14.83,51.27,1017.59,2051.97,2119.22,2206.08,2492.95,599.91,606.49,39.55,0000 0000 0000 0000 000000
2016-04-17 09:59:36,0.08,4.22,0.00,18.12,22.57,26.07,14.81,51.26,1017.59,2051.99,2118.24,2205.60,2492.15,600.00,606.68,39.61,0000 0000 0000 0000 000000
2016-04-17 10:04:37,0.06,4.22,0.00,18.12,22.57,26.05,14.85,51.08,1017.59,2051.97,2117.18,2205.01,2491.48,600.19,606.82,39.66,0000 0000 0000 0000 000000
2016-04-17 10:09:38,0.07,4.23,0.00,18.11,22.57,26.06,14.85,51.22,1017.59,2051.98,2116.19,2204.33,2490.91,599.55,606.22,39.71,0000 0000 0000 0000 000000
2016-04-17 10:14:40,0.07,4.23,0.00,18.08,22.55,26.05,14.85,51.09,1017.59,2051.98,2115.20,2203.84,2490.10,599.70,606.39,39.76,0000 0000 0000 0000 000000
2016-04-17 10:19:41,0.09,4.24,0.00,18.04,22.54,26.06,14.91,51.17,1017.59,2051.99,2114.14,2203.07,2489.25,600.14,606.88,39.81,0000 0000 0000 0000 000000
2016-04-17 10:24:43,0.03,4.24,0.00,18.02,22.54,26.04,14.96,51.14,1017.59,2051.99,2113.43,2202.96,2488.99,600.42,607.21,39.86,0000 0000 0000 0000 000000
2016-04-17 10:29:44,0.07,4.24,0.00,18.00,22.54,26.02,14.88,51.34,1017.59,2051.99,2112.96,2202.28,2488.33,600.01,606.85,39.91,0000 0000 0000 0000 000000
2016-04-17 10:34:45,0.03,4.24,0.00,17.97,22.52,26.02,14.93,51.15,1017.59,2051.99,2112.15,2202.01,2488.00,600.23,607.12,39.96,0000 0000 0000 0000 000000
2016-04-17 10:39:46,0.02,4.24,0.00,17.94,22.52,26.02,14.93,51.13,1017.57,2051.99,2111.84,2201.94,2487.74,600.29,607.30,40.01,0000 0000 0000 0000 000000
2016-04-17 10:44:47,0.07,4.25,0.00,17.90,22.51,26.01,14.89,51.26,1017.56,2051.99,2111.08,2201.23,2487.05,599.88,606.99,40.06,0000 0000 0000 0000 000000
2016-04-17 10:49:49,0.00,4.25,0.00,17.88,22.49,26.03,14.93,51.28,1017.50,2051.99,2110.99,2201.01,2486.96,600.33,607.39,40.11,0000 0000 0000 0000 000000
2016-04-17 10:54:50,0.05,4.25,0.00,17.88,22.49,25.99,14.87,51.42,1017.43,2051.99,2110.37,2200.97,2486.32,599.42,606.42,40.16,0000 0000 0000 0000 000000
2016-04-17 10:59:52,0.03,4.25,0.00,17.84,22.47,25.98,14.91,51.48,1017.33,2051.99,2109.98,2200.57,2486.00,599.88,606.83,40.21,0000 0000 0000 0000 000000
2016-04-17 11:04:53,0.07,4.26,0.00,17.81,22.47,25.95,14.91,51.52,1017.22,2051.99,2109.21,2200.02,2485.50,599.91,606.91,40.26,0000 0000 0000 0000 000000
2016-04-17 11:09:54,0.03,4.26,0.00,17.78,22.45,25.96,14.90,51.42,1017.22,2052.00,2108.73,2199.79,2485.00,599.74,606.77,40.31,0000 0000 0000 0000 000000
2016-04-17 11:14:55,0.06,4.26,0.00,17.75,22.44,25.96,14.93,51.40,1017.13,2052.01,2108.04,2199.12,2484.72,600.03,607.10,40.36,0000 0000 0000 0000 000000
2016-04-17 11:19:57,0.02,4.26,0.00,17.73,22.42,25.91,14.93,51.31,1017.11,2052.05,2107.85,2199.00,2484.04,600.14,607.18,40.41,0000 0000 0000 0000 000000
2016-04-17 11:24:58,0.04,4.26,0.00,17.72,22.42,25.91,14.96,51.36,1017.11,2052.10,2107.08,2198.89,2483.97,600.12,607.31,40.46,0000 0000 0000 0000 000000
2016-04-17 11:29:59,0.07,4.27,0.00,17.69,22.40,25.91,14.93,51.23,1017.11,2052.08,2106.65,2198.12,2483.20,599.81,607.01,40.52,0000 0000 0000 0000 000000
2016-04-17 11:35:00,0.03,4.27,0.00,17.66,22.39,25.87,14.91,51.38,1017.11,2052.22,2106.03,2197.99,2482.99,599.98,607.20,40.57,0000 0000 0000 0000 000000
2016-04-17 11:40:02,0.08,4.27,0.00,17.62,22.37,25.84,14.96,51.19,1017.10,2052.43,2105.72,2197.86,2482.61,600.15,607.64,40.62,0000 0000 0000 0000 000000
2016-04-17 11:45:03,0.07,4.28,0.00,17.62,22.36,25.83,14.90,51.24,1017.05,2052.66,2105.03,2197.17,2482.01,600.32,607.54,40.67,0000 0000 0000 0000 000000
2016-04-17 11:50:04,0.04,4.28,0.00,17.59,22.34,25.83,14.95,51.47,1016.99,2052.78,2104.63,2197.00,2481.91,600.36,607.71,40.72,0000 0000 0000 0000 000000
2016-04-17 11:55:06,0.05,4.28,0.00,17.55,22.33,25.82,14.85,51.47,1016.90,2052.89,2104.01,2196.85,2481.16,599.62,607.09,40.77,0000 0000 0000 0000 000000
2016-04-17 12:00:07,0.06,4.29,0.00,17.51,22.32,25.81,14.90,51.52,1016.76,2052.96,2103.51,2196.16,2480.99,600.03,607.42,40.82,0000 0000 0000 0000 000000
2016-04-17 12:05:09,0.01,4.29,0.00,17.50,22.30,25.80,14.91,51.48,1016.66,2052.98,2103.01,2196.00,2480.80,600.17,607.42,40.87,0000 0000 0000 0000 000000
2016-04-17 12:10:10,0.04,4.29,0.00,17.50,22.29,25.77,14.96,51.52,1016.65,2052.98,2102.65,2195.98,2480.08,600.35,607.69,40.92,0000 0000 0000 0000 000000
2016-04-17 12:15:11,0.04,4.29,0.00,17.46,22.27,25.79,14.94,51.58,1016.63,2052.98,2102.03,2195.51,2479.99,599.90,607.31,40.97,0000 0000 0000 0000 000000
2016-04-17 12:20:12,0.04,4.29,0.00,17.43,22.26,25.75,14.91,51.48,1016.62,2052.99,2101.67,2195.04,2479.65,599.88,607.38,41.02,0000 0000 0000 0000 000000
2016-04-17 12:25:14,0.02,4.30,0.00,17.42,22.24,25.73,14.93,51.43,1016.62,2052.99,2101.03,2195.00,2479.05,600.10,607.46,41.07,0000 0000 0000 0000 000000
2016-04-17 12:30:15,0.00,4.30,0.00,17.41,22.23,25.70,14.99,51.43,1016.62,2052.99,2100.97,2194.97,2479.00,600.22,607.75,41.12,0000 0000 0000 0000 000000
2016-04-17 12:35:16,0.06,4.30,0.00,17.38,22.22,25.71,14.92,51.43,1016.57,2052.99,2100.26,2194.57,2478.80,600.31,607.80,41.17,0000 0000 0000 0000 000000
2016-04-17 12:40:18,0.03,4.30,0.00,17.33,22.20,25.70,15.00,51.63,1016.35,2053.00,2099.99,2194.04,2478.08,600.26,607.74,41.22,0000 0000 0000 0000 000000
2016-04-17 12:45:19,0.03,4.30,0.00,17.33,22.19,25.68,14.95,51.58,1016.21,2053.01,2099.36,2194.00,2477.98,600.12,607.51,41.27,0000 0000 0000 0000 000000
2016-04-17 12:50:20,0.02,4.30,0.00,17.31,22.17,25.67,14.89,51.43,1016.15,2053.02,2098.99,2193.90,2477.73,599.78,607.27,41.32,0000 0000 0000 0000 000000
2016-04-17 12:55:22,0.07,4.31,0.00,17.28,22.15,25.66,14.99,51.56,1016.14,2053.05,2098.54,2193.30,2477.07,600.17,607.60,41.37,0000 0000 0000 0000 000000